Weather History for Twin Falls, ID

Change the Weather History Date:

Wednesday, January 8, 2014

  Actual Average Record
Temperature  
Mean Temperature 36 °F -  
Max Temperature 41 °F 37 °F 52 °F (2009)
Min Temperature 30 °F 21 °F -8 °F (1982)
Degree Days  
Heating Degree Days 29 36  
Month to date heating degree days 257 289  
Since 1 July heating degree days 2803 2856  
Cooling Degree Days 0 0  
Month to date cooling degree days 0 0  
Year to date cooling degree days 0 0  
Moisture  
Dew Point 31 °F    
Average Humidity 78    
Maximum Humidity 96    
Minimum Humidity 59    
Precipitation  
Precipitation 0.13 in 0.04 in 0.24 in (2005)
Month to date precipitation 0.13 0.37  
Year to date precipitation 0.13 0.37  
Sea Level Pressure  
Sea Level Pressure 30.07 in    
Wind  
Wind Speed 6 mph (WSW)    
Max Wind Speed 16 mph    
Max Gust Speed 20 mph    
Visibility 4 miles    
Events Fog , Rain , Snow    
T = Trace of Precipitation, MM = Missing Value Source: NWS Daily Summary

Daily Weather History Graph

Daily Weather History Graph

Search for Another Location

Airport:

Trip Planner

Search our weather history database for the weather conditions in past years. The results will help you decide how hot, cold, wet, or windy it might be!

Date:

Astronomy

Jan. 08, 2014 Rise Set
Actual Time 8:07 AM MST 5:22 PM MST
Civil Twilight 7:35 AM MST 5:54 PM MST
Nautical Twilight 7:00 AM MST 6:29 PM MST
Astronomical Twilight 6:26 AM MST 7:03 PM MST
Moon 12:21 PM MST (1/8) 1:12 AM MST (1/8)
Length of Visible Light 10h 18m
Length of Day
9h 15m
First Quarter, 56% of the Moon is Illuminated
Jan 8
First Quarter
Jan 15
Full
Jan 23
Last Quarter
Jan 30
New
Feb 6
First Quarter

Hourly Weather History & Observations

Time (MST) Temp. Windchill Dew Point Humidity Pressure Visibility Wind Dir Wind Speed Gust Speed Precip Events Conditions
12:53 AM 34.0 °F 28.0 °F 25.0 °F 70% 30.05 in 10.0 mi East 6.9 mph - 0.00 in   Overcast
1:53 AM 35.1 °F 31.0 °F 27.0 °F 72% 30.06 in 6.0 mi SW 4.6 mph - 0.00 in Snow Light Snow
2:12 AM 36.0 °F 30.3 °F 32.0 °F 86% 30.07 in 7.0 mi WSW 6.9 mph - 0.01 in Rain Light Rain
2:48 AM 35.6 °F 30.7 °F 30.2 °F 81% 30.07 in 3.0 mi West 5.8 mph - 0.02 in Snow Light Snow
2:53 AM 34.0 °F 29.8 °F 30.9 °F 89% 30.07 in 2.5 mi WNW 4.6 mph - 0.02 in Snow Light Snow
3:01 AM 34.0 °F - 30.9 °F 89% 30.07 in 1.8 mi Calm Calm - 0.01 in Snow Light Snow
3:08 AM 34.0 °F - 30.9 °F 89% 30.07 in 1.5 mi Calm Calm - 0.01 in Snow Light Snow
3:36 AM 34.0 °F - 30.9 °F 89% 30.07 in 1.0 mi Calm Calm - 0.03 in Snow Light Snow
3:53 AM 34.0 °F - 30.9 °F 89% 30.06 in 1.2 mi Calm Calm - 0.05 in Snow Light Snow
4:00 AM 35.1 °F 32.2 °F 30.9 °F 85% 30.07 in 2.0 mi SSW 3.5 mph - 0.00 in Snow Light Snow
4:09 AM 35.1 °F 31.0 °F 30.9 °F 85% 30.06 in 6.0 mi SSW 4.6 mph - 0.00 in Rain Light Rain
4:21 AM 35.1 °F 31.0 °F 32.0 °F 89% 30.06 in 6.0 mi SSW 4.6 mph - 0.00 in Rain Light Rain
4:41 AM 35.1 °F 29.3 °F 32.0 °F 89% 30.05 in 10.0 mi SSW 6.9 mph - 0.01 in Rain Light Rain
4:53 AM 36.0 °F 29.6 °F 32.0 °F 86% 30.04 in 10.0 mi South 8.1 mph - 0.01 in Rain Light Rain
5:53 AM 37.0 °F 31.0 °F 33.1 °F 86% 30.04 in 10.0 mi SW 8.1 mph - 0.00 in   Overcast
6:21 AM 34.0 °F 29.8 °F 30.9 °F 89% 30.05 in 1.5 mi NW 4.6 mph - 0.00 in Rain Light Rain
6:27 AM 33.1 °F 30.0 °F 30.0 °F 89% 30.05 in 0.2 mi WNW 3.5 mph - 0.00 in Fog , Rain Light Rain
6:36 AM 33.1 °F 27.7 °F 30.9 °F 92% 30.05 in 0.2 mi West 5.8 mph - 0.01 in Fog , Rain Light Freezing Rain
6:38 AM 33.1 °F 27.7 °F 30.9 °F 92% 30.05 in 0.5 mi West 5.8 mph - 0.01 in Fog , Snow Light Snow
6:53 AM 34.0 °F 28.0 °F 30.9 °F 89% 30.05 in 2.5 mi WSW 6.9 mph - 0.02 in Snow Light Snow
6:57 AM 34.0 °F 28.0 °F 30.9 °F 89% 30.05 in 3.0 mi WSW 6.9 mph - 0.00 in Rain Light Rain
7:16 AM 34.0 °F 27.2 °F 30.9 °F 89% 30.06 in 0.8 mi West 8.1 mph - 0.00 in   Overcast
7:25 AM 33.1 °F 26.9 °F 30.0 °F 89% 30.06 in 0.2 mi WNW 6.9 mph - 0.00 in Fog Fog
7:42 AM 32.0 °F 27.5 °F 30.0 °F 92% 30.07 in 0.2 mi WNW 4.6 mph - 0.00 in Fog , Rain Light Freezing Rain
7:53 AM 32.0 °F 27.5 °F 28.9 °F 88% 30.07 in 0.2 mi WNW 4.6 mph - 0.00 in Fog , Rain Light Freezing Rain
7:55 AM 32.0 °F 27.5 °F 28.9 °F 88% 30.07 in 0.5 mi WNW 4.6 mph - 0.00 in Fog Fog
8:04 AM 30.9 °F 25.2 °F 28.0 °F 89% 30.07 in 0.2 mi NW 5.8 mph - 0.00 in Fog Light Freezing Fog
8:50 AM 30.2 °F 25.4 °F 28.4 °F 93% 30.10 in 0.5 mi WNW 4.6 mph - 0.00 in Fog Light Freezing Fog
8:53 AM 30.9 °F 26.2 °F 28.0 °F 89% 30.11 in 0.5 mi NW 4.6 mph - 0.00 in Fog Light Freezing Fog
9:25 AM 30.9 °F 26.2 °F 28.0 °F 89% 30.11 in 1.0 mi SW 4.6 mph - 0.01 in Snow Light Snow
9:53 AM 34.0 °F 27.2 °F 30.9 °F 89% 30.12 in 2.5 mi SW 8.1 mph - 0.01 in   Overcast
10:01 AM 34.0 °F 27.2 °F 30.9 °F 89% 30.12 in 4.0 mi WSW 8.1 mph - N/A   Overcast
10:48 AM 35.6 °F 28.6 °F 32.0 °F 87% 30.12 in 9.0 mi WSW 9.2 mph - N/A   Overcast
10:53 AM 36.0 °F 29.6 °F 33.1 °F 89% 30.12 in 10.0 mi WSW 8.1 mph - N/A   Overcast
11:19 AM 37.0 °F 29.3 °F 33.1 °F 86% 30.12 in 9.0 mi WSW 11.5 mph - 0.00 in Rain Light Rain
11:36 AM 37.0 °F 31.0 °F 34.0 °F 89% 30.12 in 1.0 mi WSW 8.1 mph - 0.00 in Rain Light Rain
11:51 AM 35.6 °F 32.8 °F 32.0 °F 87% 30.11 in 1.2 mi Variable 3.5 mph - 0.00 in Rain Light Rain
11:53 AM 35.1 °F 32.2 °F 32.0 °F 89% 30.11 in 0.8 mi NNW 3.5 mph - 0.00 in Rain Light Rain
12:34 PM 36.0 °F - 33.1 °F 89% 30.09 in 0.5 mi Calm Calm - 0.02 in Fog Fog
12:53 PM 37.0 °F 31.6 °F 34.0 °F 89% 30.09 in 0.5 mi West 6.9 mph - 0.02 in Fog Fog
12:57 PM 37.0 °F 33.3 °F 34.0 °F 89% 30.09 in 7.0 mi West 4.6 mph - N/A   Overcast
1:53 PM 39.0 °F 33.4 °F 35.1 °F 86% 30.06 in 10.0 mi West 8.1 mph - N/A   Overcast
2:09 PM 39.0 °F 33.4 °F 35.1 °F 86% 30.06 in 10.0 mi WNW 8.1 mph - N/A   Overcast
2:31 PM 39.0 °F 35.7 °F 35.1 °F 86% 30.06 in 10.0 mi WNW 4.6 mph - N/A   Mostly Cloudy
2:53 PM 39.9 °F 37.8 °F 35.1 °F 83% 30.05 in 10.0 mi WNW 3.5 mph - N/A   Mostly Cloudy
3:14 PM 39.9 °F - 35.1 °F 83% 30.06 in 10.0 mi Calm Calm - N/A   Scattered Clouds
3:53 PM 39.9 °F 36.7 °F 35.1 °F 83% 30.05 in 10.0 mi NNW 4.6 mph - N/A   Mostly Cloudy
4:53 PM 37.9 °F 35.5 °F 34.0 °F 86% 30.04 in 8.0 mi East 3.5 mph - N/A   Scattered Clouds
5:16 PM 37.0 °F - 34.0 °F 89% 30.06 in 6.0 mi Calm Calm - N/A   Mostly Cloudy
5:53 PM 36.0 °F - 33.1 °F 89% 30.06 in 4.0 mi Calm Calm - N/A   Mostly Cloudy
6:33 PM 35.1 °F - 33.1 °F 92% 30.06 in 4.0 mi Calm Calm - N/A   Overcast
6:50 PM 35.6 °F - 32.0 °F 87% 30.06 in 2.0 mi Calm Calm - N/A   Overcast
6:53 PM 34.0 °F 31.0 °F 30.9 °F 89% 30.06 in 1.2 mi ENE 3.5 mph - N/A   Overcast
7:02 PM 33.1 °F 30.0 °F 30.9 °F 92% 30.06 in 0.8 mi SE 3.5 mph - N/A   Overcast
7:14 PM 33.1 °F 28.7 °F 30.0 °F 89% 30.06 in 4.0 mi SSE 4.6 mph - N/A   Overcast
7:53 PM 34.0 °F 27.2 °F 32.0 °F 92% 30.06 in 4.0 mi SE 8.1 mph - N/A   Overcast
8:53 PM 35.1 °F 28.6 °F 32.0 °F 89% 30.03 in 10.0 mi ESE 8.1 mph - N/A   Clear
9:53 PM 34.0 °F 28.0 °F 30.0 °F 85% 30.00 in 10.0 mi South 6.9 mph - N/A   Scattered Clouds
10:53 PM 37.0 °F 29.3 °F 28.9 °F 73% 29.97 in 10.0 mi South 11.5 mph - N/A   Overcast
11:53 PM 39.0 °F 31.0 °F 28.9 °F 67% 29.94 in 10.0 mi South 13.8 mph - N/A   Overcast